DW8122 Weather Reports


time (UTC)temp
C
wind
direction
speed
KPH
gust
KPH
rain 1hr
cm
rain 24hr
cm
rain mn
cm
humidity
%
barometer
mb
20260505034641 17 326 1.6 3.2 0.00 0.00 0.00 53 1007.7
20260505034138 17 298 1.6 3.2 0.00 0.00 0.00 52 1007.5
20260505033634 17 335 1.6 1.6 0.00 0.00 0.00 51 1007.4
20260505033133 17 286 3.2 3.2 0.00 0.00 0.00 51 1007.6
20260505032630 17 297 1.6 3.2 0.00 0.00 0.00 50 1007.4
20260505032126 17 299 1.6 3.2 0.00 0.00 0.00 50 1007.4
20260505031624 17 215 1.6 3.2 0.00 0.00 0.00 50 1007.5
20260505031120 17 208 0.0 3.2 0.00 0.00 0.00 50 1007.7
20260505030617 17 189 1.6 3.2 0.00 0.00 0.00 49 1007.6
20260505030113 17 312 1.6 3.2 0.00 0.00 0.00 50 1007.6
20260505025609 17 266 1.6 3.2 0.00 0.00 0.00 51 1007.8
20260505025108 17 289 1.6 1.6 0.00 0.00 0.00 50 1007.7
20260505024605 17 330 0.0 3.2 0.00 0.00 0.00 50 1007.6
20260505024102 17 333 0.0 1.6 0.00 0.00 0.00 51 1007.7
20260505023559 17 91 1.6 1.6 0.00 0.00 0.00 50 1007.8
20260505023057 17 333 0.0 1.6 0.00 0.00 0.00 50 1007.8
20260505022554 17 299 0.0 1.6 0.00 0.00 0.00 50 1007.8
20260505022051 17 325 0.0 3.2 0.00 0.00 0.00 50 1007.7
20260505021547 17 303 1.6 1.6 0.00 0.00 0.00 49 1007.6
20260505021044 17 340 0.0 1.6 0.00 0.00 0.00 48 1007.8
20260505020544 17 277 1.6 1.6 0.00 0.00 0.00 48 1007.9
20260505020041 17 295 0.0 1.6 0.00 0.00 0.00 48 1008.1
20260505015538 17 332 1.6 1.6 0.00 0.00 0.00 48 1008.1
20260505015035 17 283 3.2 4.8 0.00 0.00 0.00 47 1008.0
20260505014532 17 321 1.6 1.6 0.00 0.00 0.00 48 1008.0
20260505014029 17 307 0.0 1.6 0.00 0.00 0.00 48 1008.0
20260505013526 17 297 1.6 1.6 0.00 0.00 0.00 48 1008.1
20260505013023 17 329 0.0 1.6 0.00 0.00 0.00 47 1008.1
20260505012522 17 313 1.6 1.6 0.00 0.00 0.00 47 1007.7
20260505012018 18 306 0.0 3.2 0.00 0.00 0.00 46 1008.0
20260505011513 18 280 1.6 3.2 0.00 0.00 0.00 45 1007.8
20260505011011 18 297 1.6 3.2 0.00 0.00 0.00 45 1007.7
20260505010506 18 285 1.6 4.8 0.00 0.00 0.00 44 1007.7
20260505010003 18 319 1.6 3.2 0.00 0.00 0.00 44 1007.5
20260505005459 18 328 0.0 1.6 0.00 0.00 0.00 45 1007.7
20260505004957 18 243 3.2 3.2 0.00 0.00 0.00 44 1007.4
20260505004454 18 332 1.6 1.6 0.00 0.00 0.00 44 1007.5
20260505003951 18 318 1.6 4.8 0.00 0.00 0.00 43 1007.5
20260505003448 18 317 0.0 1.6 0.00 0.00 0.00 43 1007.4
20260505002944 18 320 1.6 3.2 0.00 0.00 0.00 43 1007.4
20260505002440 18 292 1.6 3.2 0.00 0.00 0.00 42 1007.4
20260505001939 18 318 1.6 3.2 0.00 0.00 0.00 43 1007.3
20260505001436 18 345 1.6 3.2 0.00 0.00 0.00 41 1007.1
20260505000933 18 336 0.0 1.6 0.00 0.00 0.00 41 1007.2
20260505000431 19 344 1.6 3.2 0.00 0.00 0.00 41 1007.2
20260504235927 19 245 1.6 3.2 0.00 0.00 0.00 39 1007.2
20260504235425 19 262 3.2 4.8 0.00 0.00 0.00 40 1007.3
20260504234921 19 316 1.6 3.2 0.00 0.00 0.00 40 1007.1
20260504234419 20 256 3.2 4.8 0.00 0.00 0.00 39 1007.1
20260504233915 20 282 1.6 3.2 0.00 0.00 0.00 40 1007.2
20260504233411 20 231 3.2 4.8 0.00 0.00 0.00 40 1007.1
20260504232908 20 327 1.6 4.8 0.00 0.00 0.00 41 1007.1
20260504232404 20 276 1.6 3.2 0.00 0.00 0.00 40 1007.4
20260504231901 20 317 1.6 3.2 0.00 0.00 0.00 41 1007.2
20260504231358 20 296 0.0 1.6 0.00 0.00 0.00 40 1007.1
20260504230854 20 284 1.6 4.8 0.00 0.00 0.00 39 1007.2
20260504230352 20 251 3.2 4.8 0.00 0.00 0.00 39 1007.0
20260504225850 20 328 3.2 4.8 0.00 0.00 0.00 38 1007.2
20260504225346 20 323 0.0 3.2 0.00 0.00 0.00 41 1007.3
20260504224844 21 320 0.0 3.2 0.00 0.00 0.00 40 1007.3
20260504224341 21 262 3.2 3.2 0.00 0.00 0.00 39 1007.3
20260504223838 21 280 3.2 3.2 0.00 0.00 0.00 39 1007.3
20260504223333 21 261 1.6 3.2 0.00 0.00 0.00 39 1007.5
20260504222830 21 307 1.6 1.6 0.00 0.00 0.00 40 1007.2
20260504222327 21 337 0.0 1.6 0.00 0.00 0.00 40 1007.3
20260504221825 21 304 1.6 3.2 0.00 0.00 0.00 40 1007.4
20260504221321 21 316 1.6 3.2 0.00 0.00 0.00 37 1007.3
20260504220818 21 347 0.0 1.6 0.00 0.00 0.00 40 1007.2
20260504220315 21 319 1.6 3.2 0.00 0.00 0.00 38 1007.2
20260504215813 21 267 1.6 1.6 0.00 0.00 0.00 39 1007.4
20260504215309 21 236 3.2 3.2 0.00 0.00 0.00 36 1007.4
20260504214805 21 249 1.6 3.2 0.00 0.00 0.00 35 1007.2
20260504214302 21 281 1.6 3.2 0.00 0.00 0.00 38 1007.3
20260504213758 21 300 3.2 4.8 0.00 0.00 0.00 37 1007.3
20260504213254 21 207 3.2 4.8 0.00 0.00 0.00 37 1007.1
20260504212752 21 253 1.6 1.6 0.00 0.00 0.00 37 1007.2
20260504212248 22 305 1.6 4.8 0.00 0.00 0.00 36 1007.2
20260504211746 22 258 1.6 4.8 0.00 0.00 0.00 36 1007.3
20260504211241 22 299 3.2 4.8 0.00 0.00 0.00 35 1007.3
20260504210739 22 251 1.6 3.2 0.00 0.00 0.00 36 1007.4
20260504210236 22 74 4.8 6.4 0.00 0.00 0.00 34 1007.4
20260504205733 22 304 3.2 4.8 0.00 0.00 0.00 33 1007.3
20260504205231 22 321 3.2 4.8 0.00 0.00 0.00 34 1007.3
20260504204729 22 269 3.2 6.4 0.00 0.00 0.00 32 1007.3
20260504204227 22 264 6.4 11.3 0.00 0.00 0.00 32 1007.4
20260504203726 22 305 6.4 9.7 0.00 0.00 0.00 33 1007.3
20260504203223 22 284 4.8 6.4 0.00 0.00 0.00 32 1007.4
20260504202723 22 327 1.6 3.2 0.00 0.00 0.00 35 1007.3
20260504202220 22 259 4.8 9.7 0.00 0.00 0.00 32 1007.6
20260504201717 22 277 4.8 9.7 0.00 0.00 0.00 32 1007.6
20260504201215 22 211 1.6 3.2 0.00 0.00 0.00 37 1007.5
20260504200712 22 353 1.6 3.2 0.00 0.00 0.00 31 1007.5
20260504200208 23 287 6.4 12.9 0.00 0.00 0.00 31 1007.8
20260504195705 22 257 6.4 9.7 0.00 0.00 0.00 31 1007.8
20260504195201 22 276 6.4 11.3 0.00 0.00 0.00 34 1008.0
20260504194658 22 327 1.6 4.8 0.00 0.00 0.00 33 1008.0
20260504194154 23 270 6.4 9.7 0.00 0.00 0.00 31 1008.1
20260504193650 23 266 3.2 9.7 0.00 0.00 0.00 33 1008.1
20260504193148 22 270 4.8 6.4 0.00 0.00 0.00 31 1008.1
20260504192646 22 280 8.0 11.3 0.00 0.00 0.00 31 1008.3
20260504192144 23 305 4.8 9.7 0.00 0.00 0.00 31 1008.1
20260504191642 23 244 9.7 12.9 0.00 0.00 0.00 30 1008.4
20260504191138 23 287 3.2 6.4 0.00 0.00 0.00 32 1008.5
20260504190634 23 314 3.2 9.7 0.00 0.00 0.00 31 1008.6
20260504190131 23 263 6.4 12.9 0.00 0.00 0.00 30 1008.4
20260504185627 23 249 8.0 11.3 0.00 0.00 0.00 32 1008.7
20260504185124 23 282 1.6 3.2 0.00 0.00 0.00 34 1008.8
20260504184620 23 292 3.2 9.7 0.00 0.00 0.00 30 1008.8
20260504184115 22 261 8.0 9.7 0.00 0.00 0.00 32 1008.8
20260504183613 23 271 6.4 6.4 0.00 0.00 0.00 30 1008.9
20260504183110 23 316 1.6 3.2 0.00 0.00 0.00 35 1008.9
20260504182607 23 331 1.6 4.8 0.00 0.00 0.00 34 1008.8
20260504182105 22 273 4.8 6.4 0.00 0.00 0.00 32 1008.8
20260504181602 22 309 3.2 4.8 0.00 0.00 0.00 30 1009.1
20260504181100 22 280 3.2 3.2 0.00 0.00 0.00 33 1009.1
20260504180558 22 302 1.6 9.7 0.00 0.00 0.00 37 1009.2
20260504180057 22 246 8.0 11.3 0.00 0.00 0.00 33 1009.2
20260504175554 22 231 8.0 11.3 0.00 0.00 0.00 31 1009.4
20260504175050 22 234 4.8 6.4 0.00 0.00 0.00 36 1009.4
20260504174549 21 290 3.2 6.4 0.00 0.00 0.00 32 1009.5
20260504174045 21 290 4.8 9.7 0.00 0.00 0.00 33 1009.6
20260504173542 21 252 6.4 12.9 0.00 0.00 0.00 33 1009.6
20260504173039 21 284 6.4 9.7 0.00 0.00 0.00 31 1009.7
20260504172535 21 298 3.2 4.8 0.00 0.00 0.00 32 1009.8
20260504172032 21 262 6.4 9.7 0.00 0.00 0.00 30 1010.0
20260504171529 21 271 6.4 11.3 0.00 0.00 0.00 33 1010.1
20260504171026 21 260 8.0 11.3 0.00 0.00 0.00 32 1009.9
20260504170522 21 300 3.2 3.2 0.00 0.00 0.00 34 1010.0
20260504160442 20 287 4.8 11.3 0.00 0.00 0.00 34 1010.8
20260504150906 18 300 4.8 9.7 0.00 0.00 0.00 34 1011.6
20260504150403 18 258 6.4 11.3 0.00 0.00 0.00 37 1011.7
20260504141332 16 305 3.2 6.4 0.00 0.00 0.00 41 1011.8
20260504140829 16 296 1.6 9.7 0.00 0.00 0.00 42 1011.7
20260504140324 16 258 6.4 6.4 0.00 0.00 0.00 40 1011.6
20260504130754 13 279 4.8 9.7 0.00 0.00 0.00 47 1012.0
20260504130249 13 256 8.0 9.7 0.00 0.00 0.00 48 1012.2
20260504120213 11 229 3.2 3.2 0.00 0.00 0.00 54 1011.8
20260504110641 10 307 1.6 3.2 0.00 0.00 0.00 53 1012.1
20260504110137 10 313 1.6 6.4 0.00 0.00 0.00 53 1012.1
20260504100603 4 340 0.0 0.0 0.00 0.00 0.00 73 1012.1
20260504081956 7 319 0.0 1.6 0.00 0.00 0.00 54 1012.3
20260504081454 7 310 1.6 3.2 0.00 0.00 0.00 53 1012.5
20260504080949 7 305 1.6 1.6 0.00 0.00 0.00 55 1012.4
20260504080446 7 309 1.6 1.6 0.00 0.00 0.00 56 1012.4
20260504050259 9 278 3.2 3.2 0.00 0.00 0.00 48 1012.5
20260504045756 9 276 3.2 4.8 0.00 0.00 0.00 48 1012.7
20260504045256 10 271 4.8 4.8 0.00 0.00 0.00 48 1012.8
20260504044754 10 281 3.2 4.8 0.00 0.00 0.00 47 1012.7
20260504044251 9 287 3.2 4.8 0.00 0.00 0.00 47 1012.7
20260504043748 9 275 4.8 4.8 0.00 0.00 0.00 49 1012.4
20260504043245 9 286 3.2 3.2 0.00 0.00 0.00 49 1012.7
20260504042743 9 282 3.2 4.8 0.00 0.00 0.00 50 1012.7
20260504042239 8 312 1.6 3.2 0.00 0.00 0.00 51 1012.3
20260504041736 9 329 1.6 1.6 0.00 0.00 0.00 55 1012.2
20260504041232 9 310 3.2 4.8 0.00 0.00 0.00 47 1012.2
20260504040728 10 323 0.0 3.2 0.00 0.00 0.00 50 1012.3
20260504040225 10 290 1.6 3.2 0.00 0.00 0.00 48 1012.3
20260504035721 10 304 3.2 3.2 0.00 0.00 0.00 46 1012.2
20260504035219 10 288 3.2 3.2 0.00 0.00 0.00 46 1012.5